Stündliche Wetter Abaigar

Heute, 22 Juni, Dienstag

Zeit Temperatur Niederschläge Wind Luftdruck Luftfeuchtigkeit
00:00 +11°C° 0 mm 1 m/S 705 mmHg 86%
01:00 +11°C° 0 mm 1 m/S 705 mmHg 87%
02:00 +11°C° 0 mm 1 m/S 705 mmHg 87%
03:00 +11°C° 0 mm 1 m/S 705 mmHg 87%
04:00 +11°C° 0 mm 1 m/S 705 mmHg 86%
05:00 +12°C° 0 mm 1 m/S 706 mmHg 84%
06:00 +12°C° 0 mm 1 m/S 706 mmHg 82%
07:00 +14°C° 0 mm 2 m/S 706 mmHg 77%
08:00 +15°C° 0 mm 2 m/S 707 mmHg 71%
09:00 +17°C° 0 mm 2 m/S 707 mmHg 66%
10:00 +17°C° 0 mm 3 m/S 707 mmHg 66%
11:00 +17°C° 0 mm 3 m/S 708 mmHg 66%
12:00 +17°C° 0 mm 4 m/S 708 mmHg 65%
13:00 +18°C° 0.1 mm 4 m/S 708 mmHg 63%
14:00 +19°C° 0.1 mm 4 m/S 708 mmHg 60%
15:00 +19°C° 0.1 mm 5 m/S 708 mmHg 57%
16:00 +19°C° 0.1 mm 5 m/S 708 mmHg 61%
17:00 +17°C° 0.1 mm 5 m/S 708 mmHg 64%
18:00 +16°C° 0.1 mm 5 m/S 709 mmHg 68%
19:00 +15°C° 0.1 mm 4 m/S 709 mmHg 74%
20:00 +14°C° 0.1 mm 3 m/S 709 mmHg 79%
21:00 +14°C° 0.1 mm 2 m/S 710 mmHg 85%
22:00 +14°C° 0.1 mm 2 m/S 709 mmHg 86%
23:00 +13°C° 0.1 mm 2 m/S 709 mmHg 86%

Morgen, 23 Juni, Mittwoch

Zeit Temperatur Niederschläge Wind Luftdruck Luftfeuchtigkeit
00:00 +13°C° 0.1 mm 2 m/S 709 mmHg 87%
01:00 +13°C° 0.2 mm 2 m/S 709 mmHg 88%
02:00 +12°C° 0.2 mm 2 m/S 709 mmHg 89%
03:00 +11°C° 0.2 mm 3 m/S 709 mmHg 90%
04:00 +12°C° 0.6 mm 2 m/S 709 mmHg 89%
05:00 +12°C° 0.6 mm 2 m/S 710 mmHg 88%
06:00 +12°C° 0.6 mm 2 m/S 710 mmHg 87%
07:00 +12°C° 0 mm 3 m/S 710 mmHg 78%
08:00 +13°C° 0 mm 3 m/S 710 mmHg 69%
09:00 +14°C° 0 mm 4 m/S 710 mmHg 60%
10:00 +15°C° 0 mm 4 m/S 710 mmHg 56%
11:00 +17°C° 0 mm 4 m/S 710 mmHg 51%
12:00 +18°C° 0 mm 4 m/S 710 mmHg 47%
13:00 +18°C° 0.1 mm 4 m/S 710 mmHg 49%
14:00 +18°C° 0.1 mm 4 m/S 710 mmHg 52%
15:00 +17°C° 0.1 mm 5 m/S 710 mmHg 54%
16:00 +17°C° 0 mm 4 m/S 710 mmHg 56%
17:00 +17°C° 0 mm 4 m/S 710 mmHg 59%
18:00 +15°C° 0 mm 4 m/S 710 mmHg 61%
19:00 +14°C° 0 mm 3 m/S 711 mmHg 65%
20:00 +14°C° 0 mm 2 m/S 711 mmHg 70%
21:00 +14°C° 0 mm 2 m/S 711 mmHg 74%
22:00 +14°C° 0 mm 2 m/S 711 mmHg 75%
23:00 +13°C° 0 mm 2 m/S 711 mmHg 77%

übermorgen, 24 Juni, Donnerstag

Zeit Temperatur Niederschläge Wind Luftdruck Luftfeuchtigkeit
00:00 +13°C° 0 mm 2 m/S 711 mmHg 79%
01:00 +13°C° 0 mm 2 m/S 711 mmHg 80%
02:00 +13°C° 0 mm 2 m/S 711 mmHg 81%
03:00 +13°C° 0 mm 2 m/S 711 mmHg 82%
04:00 +13°C° 0 mm 2 m/S 711 mmHg 81%
05:00 +13°C° 0 mm 1 m/S 711 mmHg 81%
06:00 +14°C° 0 mm 1 m/S 711 mmHg 81%
07:00 +14°C° 0 mm 1 m/S 712 mmHg 79%
08:00 +15°C° 0 mm 2 m/S 712 mmHg 77%
09:00 +15°C° 0 mm 2 m/S 712 mmHg 75%
10:00 +17°C° 0 mm 2 m/S 712 mmHg 69%
11:00 +18°C° 0 mm 2 m/S 712 mmHg 63%
12:00 +20°C° 0 mm 3 m/S 712 mmHg 57%
13:00 +20°C° 0 mm 3 m/S 712 mmHg 55%
14:00 +21°C° 0 mm 3 m/S 712 mmHg 52%
15:00 +22°C° 0 mm 3 m/S 712 mmHg 49%
16:00 +22°C° 0 mm 3 m/S 712 mmHg 52%
17:00 +21°C° 0 mm 3 m/S 712 mmHg 55%
18:00 +21°C° 0 mm 3 m/S 711 mmHg 59%
19:00 +18°C° 0 mm 3 m/S 712 mmHg 68%
20:00 +16°C° 0 mm 2 m/S 712 mmHg 78%
21:00 +14°C° 0 mm 2 m/S 712 mmHg 87%
22:00 +14°C° 0 mm 2 m/S 712 mmHg 88%
23:00 +13°C° 0 mm 2 m/S 712 mmHg 90%

25 Juni, Freitag

Zeit Temperatur Niederschläge Wind Luftdruck Luftfeuchtigkeit
00:00 +13°C° 0 mm 1 m/S 712 mmHg 91%
01:00 +12°C° 0 mm 1 m/S 711 mmHg 91%
02:00 +12°C° 0 mm 1 m/S 711 mmHg 91%
03:00 +12°C° 0 mm 1 m/S 711 mmHg 91%
04:00 +13°C° 0 mm 1 m/S 711 mmHg 87%
05:00 +13°C° 0 mm 1 m/S 711 mmHg 84%
06:00 +14°C° 0 mm 1 m/S 711 mmHg 81%
07:00 +16°C° 0 mm 1 m/S 711 mmHg 73%
08:00 +19°C° 0 mm 1 m/S 711 mmHg 64%
09:00 +22°C° 0 mm 1 m/S 711 mmHg 56%
10:00 +23°C° 0 mm 1 m/S 711 mmHg 52%
11:00 +25°C° 0 mm 2 m/S 711 mmHg 48%
12:00 +26°C° 0 mm 2 m/S 711 mmHg 44%
13:00 +27°C° 0 mm 2 m/S 711 mmHg 42%
14:00 +28°C° 0 mm 2 m/S 711 mmHg 40%
15:00 +29°C° 0 mm 2 m/S 710 mmHg 39%
16:00 +29°C° 0 mm 2 m/S 710 mmHg 42%
17:00 +28°C° 0 mm 1 m/S 710 mmHg 46%
18:00 +28°C° 0 mm 1 m/S 710 mmHg 49%
19:00 +25°C° 0 mm 1 m/S 710 mmHg 59%
20:00 +23°C° 0 mm 2 m/S 710 mmHg 68%
21:00 +19°C° 0 mm 2 m/S 710 mmHg 78%
22:00 +19°C° 0 mm 2 m/S 710 mmHg 79%
23:00 +19°C° 0 mm 1 m/S 710 mmHg 80%

26 Juni, Samstag

Zeit Temperatur Niederschläge Wind Luftdruck Luftfeuchtigkeit
00:00 +19°C° 0 mm 1 m/S 710 mmHg 81%
01:00 +19°C° 0 mm 1 m/S 709 mmHg 81%
02:00 +19°C° 0 mm 1 m/S 709 mmHg 80%
03:00 +19°C° 0 mm 1 m/S 709 mmHg 79%
04:00 +19°C° 0 mm 1 m/S 709 mmHg 77%
05:00 +20°C° 0 mm 1 m/S 709 mmHg 75%
06:00 +20°C° 0 mm 1 m/S 710 mmHg 74%
07:00 +21°C° 0 mm 2 m/S 710 mmHg 66%
08:00 +24°C° 0 mm 2 m/S 710 mmHg 58%
09:00 +26°C° 0 mm 3 m/S 710 mmHg 51%
10:00 +28°C° 0 mm 2 m/S 710 mmHg 46%
11:00 +29°C° 0 mm 2 m/S 710 mmHg 42%
12:00 +31°C° 0 mm 2 m/S 710 mmHg 37%
13:00 +32°C° 0 mm 2 m/S 709 mmHg 35%
14:00 +33°C° 0 mm 1 m/S 709 mmHg 32%
15:00 +33°C° 0 mm 1 m/S 709 mmHg 29%
16:00 +31°C° 0 mm 2 m/S 709 mmHg 37%
17:00 +29°C° 0 mm 3 m/S 709 mmHg 45%
18:00 +27°C° 0 mm 4 m/S 708 mmHg 53%
19:00 +25°C° 0 mm 3 m/S 708 mmHg 60%
20:00 +23°C° 0 mm 2 m/S 709 mmHg 66%
21:00 +21°C° 0 mm 1 m/S 709 mmHg 73%
22:00 +20°C° 0 mm 1 m/S 709 mmHg 73%
23:00 +20°C° 0 mm 1 m/S 709 mmHg 74%

27 Juni, Sonntag

Zeit Temperatur Niederschläge Wind Luftdruck Luftfeuchtigkeit
00:00 +20°C° 0 mm 1 m/S 709 mmHg 74%
01:00 +19°C° 0 mm 1 m/S 709 mmHg 74%
02:00 +19°C° 0 mm 1 m/S 709 mmHg 75%
03:00 +17°C° 0 mm 0 m/S 709 mmHg 75%
04:00 +18°C° 0 mm 0 m/S 709 mmHg 74%
05:00 +18°C° 0 mm 0 m/S 709 mmHg 73%
06:00 +19°C° 0 mm 0 m/S 709 mmHg 71%
07:00 +23°C° 0 mm 1 m/S 710 mmHg 65%
08:00 +24°C° 0 mm 1 m/S 710 mmHg 59%
09:00 +26°C° 0 mm 1 m/S 710 mmHg 52%
10:00 +28°C° 0 mm 1 m/S 710 mmHg 48%
11:00 +29°C° 0 mm 1 m/S 710 mmHg 43%
12:00 +31°C° 0 mm 1 m/S 710 mmHg 39%
13:00 +32°C° 0 mm 1 m/S 710 mmHg 37%
14:00 +32°C° 0 mm 1 m/S 710 mmHg 35%
15:00 +33°C° 0 mm 1 m/S 710 mmHg 33%
16:00 +32°C° 0 mm 1 m/S 709 mmHg 38%
17:00 +31°C° 0 mm 2 m/S 709 mmHg 43%
18:00 +30°C° 0 mm 2 m/S 709 mmHg 48%
19:00 +27°C° 0 mm 2 m/S 709 mmHg 61%
20:00 +24°C° 0 mm 2 m/S 709 mmHg 73%
21:00 +20°C° 0 mm 2 m/S 709 mmHg 86%
22:00 +19°C° 0 mm 2 m/S 710 mmHg 88%
23:00 +18°C° 0 mm 2 m/S 710 mmHg 89%
Mehr zeigen

Wir brauchen deine Erlaubnis

Meteoprog und unser Service Anbieter werden persönliche Daten aufbewahren, so wie Cookies, Geräte Bezeichnung oder ähnliche Technologien von deinem Gerät und Prozess, so wie Persönliche Daten Inhalte und Werbungen, genauso wie social Media und den Verkehr zu analysieren.

  • Aufbewahrung und/oder Zugang zu deiner Geräte Informationen.

    Cookies, Geräte Bezeichnung oder andere Informationen, können aufbewahrt oder Zugang zu deinem Gerät erhalten, für den Grund, der oben angegeben wird.

  • Personalisierte Werbung und Inhalte, Messungen, Einblick in das Publikum und Produkt Entwicklung.

    Werbungen und Inhalte können personalisiert werden, basierend auf ein Profil. Mehr Daten können besser personalisierte Werbungen und Inhalte hinzufügen. Werbung und Inhalte können gezeigt und gemessen werden. Einblicke über das Publikum, welche die Werbung gesehen haben und den Inhalt, können abgeleitet werden. So wie Daten können genutzt werden, um es zu verbessern oder die Benutzer Erfahrung zu verbessern das System und die Software.

Wenn du “Ich stimme zu” klickst, erlaubst du uns, die Cookies zu benutzen die Geräte Bezeichnung, den Web oder ähnliche Technologien zu benutzen. Deine Settings, können in deinem Gerät bei deinem Browser geändert werden.

Für den bestimmten Zweck, berechtigten Interessen beruhen darauf, mehr als auf den Inhalt. Du kannst mehr darüber in unseren Privaten und Cookie Politik lesen.